Regional Weather Roundup
Issued by NWS

Home | Current Version | Previous Version | Text Only | Print | Product List | Glossary On
Versions: 1 2 3 4 5 6 7 8 9 10 11 12 13 14 15 16 17 18 19 20 21 22 23 24 25 26 27 28 29 30 31 32 33 34 35 36 37 38 39 40 41 42 43 44 45 46 47 48 49 50
000
ASUS43 KMKX 191000
RWRWI

WISCONSIN REGIONAL WEATHER ROUNDUP
NATIONAL WEATHER SERVICE MILWAUKEE/SULLIVAN WI
500 AM CDT SUN APR 19 2015

NOTE: "FAIR" INDICATES FEW OR NO CLOUDS BELOW 12,000 FEET WITH NO
SIGNIFICANT WEATHER AND/OR OBSTRUCTIONS TO VISIBILITY.

WIZ001-002-006>008-014>016-023>028-191100-
NORTHWEST WISCONSIN

CITY           SKY/WX    TMP DP  RH WIND       PRES   REMARKS
SUPERIOR ARPT  LGT RAIN  37  35  93 E17G28    29.86F WCI  27
ASHLAND        LGT RAIN  40  38  93 NE7       29.88F
HAYWARD        LGT RAIN  44  34  67 E14G20    29.83F
SIREN          RAIN      46  36  69 SE7       29.79F
CUMBERLAND     LGT RAIN  41  34  75 E9G22     29.81F
RICE LAKE      RAIN      43  36  75 E10       29.85F
CHETEK         DRIZZLE   44  36  73 E8        29.85F
LADYSMITH      CLOUDY    45  35  69 E13G18    29.88F
EAU CLAIRE     CLOUDY    46  33  60 E9        29.82F
MENOMONIE      CLOUDY    46  35  63 E10       29.83F
NEW RICHMOND   CLOUDY    46  35  65 SE14      29.78F
OSCEOLA        CLOUDY    47  37  66 SE15      29.80F
$$

WIZ003>005-009-010-017-018-191100-
NORTH CENTRAL WISCONSIN

CITY           SKY/WX    TMP DP  RH WIND       PRES   REMARKS
MANITOWISH WTR CLOUDY    44  27  51 SE8       29.93F
ARBOR VITAE    CLOUDY    45  27  49 SE9       29.94S
WOODRUFF       CLOUDY    45  27  49 SE9       29.94S
RHINELANDER    CLOUDY    44  23  43 SE8       29.95S
EAGLE RIVER    CLOUDY    42  23  46 SE9       29.94F
LAND O LAKES   CLOUDY    42  24  49 SE8       29.95F
PHILLIPS       LGT RAIN  44  33  67 SE5       29.92F
TOMAHAWK       CLOUDY    45  24  42 CALM      29.94F
MEDFORD        DRIZZLE   41  32  70 E12G17    29.87F
MERRILL        CLOUDY    47  22  38 SE12      29.93F
$$

WIZ029-030-035-036-043>047-191100-
CENTRAL WISCONSIN

CITY           SKY/WX    TMP DP  RH WIND       PRES   REMARKS
WAUSAU         CLOUDY    46  23  40 E10       29.90F
MOSINEE        CLOUDY    45  23  42 E12       29.92F
MARSHFIELD     CLOUDY    47  29  49 E13       29.87F
STEVENS POINT  CLOUDY    44  24  45 E12       29.91F
WAUPACA        CLOUDY    48  26  42 NE6       29.94F
WAUTOMA        NOT AVBL
WISC RAPIDS    CLOUDY    47  24  40 E8        29.90F
CAMP DOUGLAS   NOT AVBL
$$

WIZ011>013-019>022-031-037>040-048>050-191100-
NORTHEAST WISCONSIN

CITY           SKY/WX    TMP DP  RH WIND       PRES   REMARKS
ANTIGO         CLOUDY    41  25  52 SE17G26   29.94F
SHAWANO        CLOUDY    44  32  61 E8        29.98F
OCONTO         PTCLDY    42  28  57 E6        30.00F
STURGEON BAY   CLEAR     41  27  56 SE9       30.01F
GREEN BAY      MOCLDY    46  26  45 SE10      29.97F
MANITOWOC      NOT AVBL
APPLETON       CLOUDY    46  25  42 E16G22    29.94F
CLINTONVILLE   CLOUDY    43  28  56 E7        29.96F
OSHKOSH        MOCLDY    49  28  44 SE14      29.92F
$$

WIZ032>034-041-042-053>061-191100-
SOUTHWEST WISCONSIN

CITY           SKY/WX    TMP DP  RH WIND       PRES   REMARKS
LA CROSSE      CLOUDY    51  34  52 E6        29.82F
SPARTA         CLOUDY    46  33  60 NE3       29.85F
VIROQUA        CLOUDY    49  32  51 E13       29.83F
BOSCOBEL       CLOUDY    51  34  52 NE5       29.84F
PRAIRIE DU CHI MOCLDY    54  34  47 E7        29.82F
PLATTEVILLE    CLOUDY    51  37  59 E12       29.83F
$$

WIZ056-057-062-063-064-067-068-191100-
SOUTH CENTRAL WISCONSIN

CITY           SKY/WX    TMP DP  RH WIND       PRES   REMARKS
REEDSBURG      MOCLDY    50  31  48 E7        29.87S
BARABOO/DELLS  MOCLDY    49  29  46 NE8       29.87F
LONE ROCK      NOT AVBL
MINERAL POINT  CLOUDY    52  32  46 E8        29.85S
MADISON        PTCLDY    51  31  46 SE9       29.87F
MIDDLETON      PTCLDY    52  31  44 SE9       29.88F
WATERTOWN      PTCLDY    48  30  48 E10       29.90F
MONROE         MOCLDY    48  36  61 E6        29.86S
JANESVILLE     CLEAR     50  30  46 E7        29.87F
$$

WIZ051-052-058>065-066-070>072-191100-
SOUTHEAST WISCONSIN

CITY           SKY/WX    TMP DP  RH WIND       PRES   REMARKS
MILWAUKEE      CLOUDY    44  31  60 E9        29.95F
WAUKESHA       MOCLDY    43  30  61 E8        29.95S
MILWAUKEE/TIMM CLOUDY    45  28  53 E9G17     29.96F
RACINE         MOCLDY    45  30  55 E12       29.95F
BURLINGTON     PTCLDY    46  29  52 E8        29.92F
KENOSHA        PTCLDY    46  30  53 E13       29.93F
FOND DU LAC    MOCLDY    48  27  44 SE17      29.92F
SHEBOYGAN      PTCLDY    43  29  57 SE6       29.98F
WEST BEND      CLOUDY    45  28  53 E12       29.96F
JUNEAU         MOCLDY    47  28  48 E12       29.92F
$$

LSZ147-162-191100-
LAKE SUPERIOR

STATION/POSITION TIME  TEMP    WIND        PRES    WAVE
                       AIR SEA DIR/SP/G            HT/PER
                 (UTC) (F)     (DEG/KT/KT) (MB)    (FT/S)
DEVILS ISLAND    0900   37      80/  8/  9 1015.5F
PORT WING        0900   37      50/ 11/ 18 1013.2
SAXON HARBOR     0900   40        CALM     1013.9F
$$

LMZ867-665-643>646-191100-
LAKE MICHIGAN

STATION/POSITION TIME  TEMP    WIND        PRES    WAVE
                       AIR SEA DIR/SP/G            HT/PER
                 (UTC) (F)     (DEG/KT/KT) (MB)    (FT/S)
CHAMBERS ISLAND  0900   40      40/  3/  4 1017.3S
NORTHPORT PIER   0901   40     100/ 11/ 12 1017.3F
KEWAUNEE LAKESHO 0900   42      70/  4/  6 1015.5F
SHEBOYGAN LAKESH 0900   43     150/  5/  7 1016.5F
PORT WASHINGTON  0900   45     100/  7/  9 1016.3F
MILWAUKEE LAKESH 0900   43      70/ 10/ 11   N/A
KENOSHA   LAKESH 0900   44      90/  9/ 10 1013.9F
$$

TC  - TEMPERATURE IN CELSIUS
VSB - VISIBILITY IN STATUTE MILES
WCI - WIND CHILL INDEX
HX  - HEAT INDEX




USA.gov is the U.S. government's official web portal to all federal, state and local government web resources and services.